N1UNH Weather Reports


time (UTC)temp
F
wind
direction
speed
knots
gust
knots
rain 1hr
in
rain 24hr
in
rain mn
in
humidity
%
barometer
mb
20260507161427 59 204 0.9 0.9 0.00 0.00 0.00 36 1012.7
20260507160924 59 204 1.7 1.7 0.00 0.00 0.00 41 1012.6
20260507160420 60 204 0.9 1.7 0.00 0.00 0.00 37 1012.8
20260507155916 60 204 1.7 1.7 0.00 0.00 0.00 35 1012.8
20260507155412 59 204 0.9 0.9 0.00 0.00 0.00 43 1012.6
20260507154909 58 204 0.0 0.0 0.00 0.00 0.00 42 1012.8
20260507154406 58 204 0.9 1.7 0.00 0.00 0.00 41 1012.9
20260507153903 58 204 2.6 2.6 0.00 0.00 0.00 44 1012.8
20260507153359 58 204 0.9 1.7 0.00 0.00 0.00 40 1012.9
20260507153224 57 204 0.9 1.7 0.00 0.00 0.00 42 1013.0
20260507152856 57 204 0.9 1.7 0.00 0.00 0.00 42 1013.0
20260507152731 57 204 1.7 1.7 0.00 0.00 0.00 48 1013.0
20260507152352 56 204 0.9 0.9 0.00 0.00 0.00 44 1013.0
20260507151848 57 204 1.7 1.7 0.00 0.00 0.00 48 1013.0
20260507151344 57 204 0.9 1.7 0.00 0.00 0.00 46 1013.3
20260507150842 56 204 3.5 2.6 0.00 0.00 0.00 53 1013.0
20260507150338 55 204 0.9 1.7 0.00 0.00 0.00 53 1013.3
20260507145834 55 204 0.9 0.9 0.00 0.00 0.00 61 1013.1
20260507145331 53 204 0.9 0.9 0.00 0.00 0.00 66 1012.9
20260507144828 52 204 0.0 0.0 0.00 0.00 0.00 66 1012.8
20260507144325 52 203 0.9 0.9 0.00 0.00 0.00 61 1013.2
20260507143822 52 203 0.0 0.0 0.00 0.00 0.00 64 1013.1
20260507143319 52 203 0.9 0.9 0.00 0.00 0.00 65 1013.3
20260507142815 53 204 0.0 0.0 0.00 0.00 0.00 66 1013.1
20260507142312 53 203 0.0 0.0 0.00 0.00 0.00 63 1013.2
20260507141809 53 203 0.0 0.0 0.00 0.00 0.00 61 1013.3
20260507141306 53 203 1.7 1.7 0.00 0.00 0.00 65 1013.3
20260507140801 53 203 0.9 0.9 0.00 0.00 0.00 66 1012.9
20260507140259 52 204 0.9 0.9 0.00 0.00 0.00 68 1012.8
20260507135756 52 203 0.0 0.0 0.00 0.00 0.00 68 1013.2
20260507135253 52 204 0.9 0.9 0.00 0.00 0.00 65 1013.3
20260507134749 52 203 0.9 0.9 0.00 0.00 0.00 67 1013.0
20260507134246 51 203 0.0 0.0 0.00 0.00 0.00 73 1013.3
20260507133742 51 203 1.7 1.7 0.00 0.00 0.00 74 1013.3
20260507133239 51 203 0.9 0.9 0.00 0.00 0.00 71 1013.3
20260507132736 52 203 0.0 0.0 0.00 0.00 0.00 70 1013.4
20260507132233 52 203 0.0 0.0 0.00 0.00 0.00 71 1013.4
20260507131730 52 203 0.9 0.9 0.00 0.00 0.00 71 1013.5
20260507131227 51 203 0.9 0.9 0.00 0.00 0.00 71 1013.4
20260507130724 51 203 1.7 1.7 0.00 0.00 0.00 75 1013.6
20260507130221 51 203 0.0 0.9 0.00 0.00 0.00 74 1013.9
20260507125720 50 203 1.7 1.7 0.00 0.00 0.00 72 1013.8
20260507125217 50 203 0.0 0.0 0.00 0.00 0.00 74 1013.6
20260507124714 50 203 0.9 0.9 0.00 0.00 0.00 77 1013.6
20260507124211 49 203 0.9 0.9 0.00 0.00 0.00 78 1013.6
20260507123709 49 203 0.9 1.7 0.00 0.00 0.00 77 1013.3
20260507123206 49 203 0.0 0.0 0.00 0.00 0.00 80 1013.3
20260507122701 49 203 0.0 0.0 0.00 0.00 0.00 78 1013.4
20260507122157 48 203 0.0 0.0 0.00 0.00 0.00 80 1013.3
20260507121653 47 203 0.9 0.9 0.00 0.00 0.00 83 1013.4
20260507121149 47 203 0.0 0.0 0.00 0.00 0.00 90 1013.5
20260507120646 47 203 0.0 0.0 0.00 0.00 0.00 89 1013.6
20260507120142 47 203 1.7 1.7 0.00 0.00 0.00 87 1013.5
20260507115639 47 203 0.0 0.9 0.00 0.00 0.00 89 1013.8
20260507115134 46 203 0.9 0.9 0.00 0.00 0.00 88 1013.8
20260507114630 46 203 0.0 0.0 0.00 0.00 0.00 88 1013.8
20260507114128 46 203 0.0 0.0 0.00 0.00 0.00 89 1013.4
20260507113625 46 203 0.0 0.0 0.00 0.00 0.00 89 1013.4
20260507113122 45 203 0.9 0.9 0.00 0.00 0.00 92 1013.8
20260507112620 45 203 0.0 0.0 0.00 0.00 0.00 95 1013.5
20260507112116 44 203 0.0 0.0 0.00 0.00 0.00 95 1013.8
20260507111614 44 203 0.0 0.0 0.00 0.00 0.00 95 1013.4
20260507111110 44 203 0.0 0.0 0.00 0.00 0.00 96 1013.8
20260507110607 44 203 0.9 0.9 0.00 0.00 0.00 96 1013.6
20260507110103 44 203 0.0 0.0 0.00 0.00 0.00 96 1013.5
20260507105600 44 203 0.0 0.0 0.00 0.00 0.00 96 1013.3
20260507105056 44 203 0.0 0.0 0.00 0.00 0.00 95 1013.0
20260507104554 44 203 0.9 0.9 0.00 0.00 0.00 95 1012.9
20260507104050 43 203 0.0 0.0 0.00 0.00 0.00 95 1013.0
20260507103546 44 203 0.0 0.0 0.00 0.00 0.00 95 1013.1
20260507103043 44 203 0.0 0.0 0.00 0.00 0.00 95 1013.2
20260507102539 44 203 0.0 0.0 0.00 0.00 0.00 95 1013.1
20260507102035 44 203 0.0 0.0 0.00 0.00 0.00 94 1013.3
20260507101531 44 203 0.0 0.0 0.00 0.00 0.00 94 1013.2
20260507101027 44 203 0.0 0.0 0.00 0.00 0.00 94 1012.8
20260507100525 44 203 0.0 0.0 0.00 0.00 0.00 94 1013.0
20260507100023 44 203 0.0 0.0 0.00 0.00 0.00 94 1013.3
20260507095521 44 203 0.0 0.0 0.00 0.00 0.00 94 1013.3
20260507095017 45 203 0.0 0.0 0.00 0.00 0.00 94 1012.8
20260507094513 45 203 0.0 0.0 0.00 0.00 0.00 94 1013.1
20260507094010 45 203 0.9 0.9 0.00 0.00 0.00 94 1013.1
20260507093508 45 203 0.0 0.0 0.00 0.00 0.00 94 1013.4
20260507093007 45 203 0.0 0.0 0.00 0.00 0.00 94 1013.2
20260507092502 45 203 0.0 0.0 0.00 0.00 0.00 94 1013.4
20260507091959 45 203 0.0 0.0 0.00 0.00 0.00 94 1013.1
20260507091455 45 203 0.0 0.0 0.00 0.00 0.00 94 1013.5
20260507090952 45 203 0.0 0.0 0.00 0.00 0.00 94 1013.6
20260507090448 45 203 0.0 0.0 0.00 0.00 0.00 94 1013.6
20260507085944 45 203 0.0 0.0 0.00 0.00 0.00 95 1013.6
20260507085442 45 203 0.0 0.0 0.00 0.00 0.00 94 1013.3
20260507084938 45 203 0.9 0.9 0.00 0.00 0.00 94 1012.7
20260507084435 45 203 0.0 0.0 0.00 0.00 0.00 95 1012.8
20260507083932 45 203 0.0 0.0 0.00 0.00 0.00 94 1012.9
20260507083429 45 203 0.0 0.0 0.00 0.00 0.00 94 1012.7
20260507082925 45 203 0.0 0.0 0.00 0.00 0.00 94 1012.9
20260507082421 45 203 0.0 0.0 0.00 0.00 0.00 94 1013.0
20260507081918 45 203 0.0 0.0 0.00 0.00 0.00 95 1012.7
20260507081414 46 203 0.9 0.9 0.00 0.00 0.00 95 1013.2
20260507080911 46 203 0.9 0.9 0.00 0.00 0.00 95 1012.7
20260507080408 46 203 0.9 0.9 0.00 0.00 0.00 95 1012.6
20260507075903 46 203 0.0 0.0 0.00 0.00 0.00 95 1012.8
20260507075359 46 203 0.0 0.0 0.00 0.00 0.00 95 1013.1
20260507074856 46 203 0.0 0.0 0.00 0.00 0.00 95 1013.1
20260507074353 46 203 0.0 0.0 0.00 0.00 0.00 95 1013.1
20260507073850 46 203 0.0 0.0 0.00 0.00 0.00 95 1012.8
20260507073346 46 203 0.0 0.0 0.00 0.00 0.00 95 1012.6
20260507072844 46 203 0.0 0.0 0.00 0.00 0.00 95 1012.5
20260507072341 46 203 0.0 0.0 0.00 0.00 0.00 95 1012.5
20260507071839 45 203 0.0 0.0 0.00 0.00 0.00 95 1012.2
20260507071336 46 203 0.0 0.0 0.00 0.00 0.00 94 1012.8
20260507070832 46 203 0.9 0.0 0.00 0.00 0.00 94 1012.5
20260507070329 46 203 0.0 0.0 0.00 0.00 0.00 94 1012.4
20260507065826 46 203 0.0 0.0 0.00 0.00 0.00 94 1012.3
20260507065322 46 203 0.0 0.0 0.00 0.00 0.00 94 1012.5
20260507064820 46 203 0.0 0.0 0.00 0.00 0.00 94 1012.4
20260507064318 46 203 0.9 0.9 0.00 0.00 0.00 94 1012.2
20260507063816 46 203 0.0 0.0 0.00 0.00 0.00 94 1012.3
20260507063312 47 203 0.0 0.0 0.00 0.00 0.00 93 1012.6
20260507062809 47 203 0.0 0.0 0.00 0.00 0.00 93 1012.7
20260507062306 47 203 0.9 0.9 0.00 0.00 0.00 94 1012.9
20260507061804 47 203 0.9 0.9 0.00 0.00 0.00 94 1012.6
20260507061302 47 203 0.0 0.0 0.00 0.00 0.00 94 1012.5
20260507060800 47 203 0.0 0.0 0.00 0.00 0.00 94 1012.9
20260507060256 47 203 0.0 0.0 0.00 0.00 0.00 94 1012.2
20260507055753 47 203 0.0 0.0 0.00 0.00 0.00 94 1012.6
20260507055248 47 203 0.9 0.9 0.00 0.00 0.00 93 1012.6
20260507054745 47 203 0.0 0.0 0.00 0.00 0.00 93 1012.6
20260507054241 47 203 0.0 0.0 0.00 0.00 0.00 94 1012.8
20260507053739 47 203 0.9 0.9 0.00 0.00 0.00 94 1012.7
20260507053236 47 203 0.0 0.0 0.00 0.00 0.00 93 1012.4
20260507052735 48 203 0.0 0.0 0.00 0.00 0.00 93 1012.6
20260507052231 48 203 0.9 0.9 0.00 0.00 0.00 93 1012.6
20260507051729 48 203 0.0 0.0 0.00 0.00 0.00 94 1012.7
20260507051226 48 203 0.0 0.0 0.00 0.00 0.00 94 1012.5
20260507050722 48 203 0.0 0.0 0.00 0.00 0.00 94 1012.2
20260507050220 48 203 0.0 0.0 0.00 0.00 0.00 94 1012.6
20260507045716 48 203 0.0 0.0 0.00 0.00 0.00 94 1012.2
20260507045212 48 203 0.0 0.0 0.00 0.00 0.00 94 1012.4
20260507044710 49 203 0.9 0.9 0.00 0.00 0.00 94 1012.3
20260507044206 49 203 0.0 0.0 0.00 0.00 0.00 94 1012.5
20260507043702 49 203 0.0 0.9 0.00 0.00 0.00 95 1012.3
20260507043159 50 203 0.0 0.0 0.00 0.00 0.00 95 1012.4
20260507042656 49 203 0.0 0.0 0.00 0.00 0.00 94 1012.5
20260507042150 49 203 0.0 0.0 0.00 0.00 0.00 94 1012.7
20260507041648 49 203 0.0 0.0 0.00 0.00 0.00 94 1012.7
20260507041144 50 203 0.0 0.0 0.00 0.00 0.00 94 1012.3
20260507040642 50 203 0.9 0.9 0.00 0.00 0.00 94 1012.7
20260507040138 50 203 0.0 0.0 0.00 0.00 0.00 94 1012.6
20260507035634 50 203 0.0 0.0 0.00 0.34 0.34 94 1012.8
20260507035130 50 203 0.0 0.0 0.00 0.34 0.34 94 1012.6
20260507034627 50 203 0.0 0.0 0.00 0.34 0.34 94 1012.4
20260507034125 50 203 0.0 0.0 0.00 0.34 0.34 94 1012.3
20260507033623 50 203 0.0 0.0 0.00 0.34 0.34 94 1012.3
20260507033120 51 203 0.0 0.0 0.00 0.34 0.34 94 1012.5
20260507032617 51 203 0.0 0.0 0.00 0.34 0.34 94 1012.3
20260507032113 51 203 0.0 0.0 0.00 0.34 0.34 94 1012.4
20260507031610 51 203 0.0 0.0 0.00 0.34 0.34 94 1012.4
20260507031106 51 203 0.0 0.0 0.07 0.34 0.34 94 1012.5
20260507030603 51 203 0.0 0.0 0.12 0.34 0.34 93 1012.4
20260507030101 51 203 0.0 0.0 0.17 0.33 0.33 93 1012.4
20260507025558 52 203 0.0 0.0 0.19 0.32 0.32 92 1012.3
20260507025055 52 203 0.0 0.0 0.07 0.30 0.30 92 1012.3
20260507024553 52 203 0.0 0.0 0.00 0.29 0.29 92 1012.1
20260507024050 53 203 0.9 0.9 0.00 0.29 0.29 93 1012.0
20260507023545 53 203 1.7 1.7 0.05 0.29 0.29 93 1012.2
20260507023043 53 203 0.0 0.0 0.05 0.29 0.29 93 1012.0
20260507022539 54 203 0.0 0.0 0.00 0.28 0.28 93 1012.0
20260507022035 54 203 0.0 0.0 0.00 0.28 0.28 93 1011.8
20260507021531 54 203 0.0 0.9 0.00 0.28 0.28 94 1011.5
20260507021028 54 203 0.9 0.9 0.00 0.28 0.28 94 1011.5
20260507020525 55 203 0.9 0.9 0.00 0.28 0.28 94 1011.6
20260507020022 55 203 0.9 0.9 0.00 0.28 0.28 94 1011.4
20260507015520 55 203 0.9 0.9 0.07 0.28 0.28 94 1011.3
20260507015017 55 203 0.0 0.0 0.12 0.28 0.28 94 1011.2
20260507014514 55 203 0.0 0.0 0.12 0.27 0.27 94 1011.2
20260507014010 55 203 0.0 0.0 0.19 0.26 0.26 94 1010.9
20260507013506 56 203 0.0 0.0 0.24 0.25 0.25 94 1011.1
20260507013004 56 203 0.9 0.9 0.12 0.23 0.23 94 1011.3
20260507012501 56 203 0.0 0.0 0.07 0.21 0.21 94 1011.3
20260507011957 56 203 0.0 0.0 0.19 0.21 0.21 94 1011.0
20260507011454 57 203 0.0 0.0 0.24 0.20 0.20 95 1011.0
20260507010950 59 203 0.9 0.9 0.12 0.18 0.18 95 1010.8
20260507010444 59 203 0.0 0.0 0.00 0.16 0.16 95 1010.5
20260507005942 59 203 0.0 0.0 0.00 0.16 0.16 95 1010.3
20260507005439 59 203 0.0 0.0 0.00 0.16 0.16 95 1010.4
20260507004935 59 203 0.0 0.0 0.00 0.16 0.16 95 1010.3
20260507004432 59 203 0.9 0.0 0.00 0.16 0.16 95 1010.5
20260507003930 59 203 0.0 0.0 0.00 0.16 0.16 95 1010.4
20260507003424 59 203 0.9 0.9 0.00 0.16 0.16 95 1010.3
20260507002920 59 203 0.9 0.9 0.00 0.16 0.16 95 1010.2
20260507002416 59 203 0.0 0.0 0.00 0.16 0.16 95 1010.2
20260507001914 59 203 0.0 0.0 0.00 0.16 0.16 95 1010.2
20260507001410 59 203 0.0 0.0 0.00 0.16 0.16 95 1010.3
20260507000908 59 203 0.0 0.0 0.00 0.16 0.16 95 1010.1
20260507000405 59 203 0.0 0.0 0.00 0.16 0.16 95 1010.0
20260506235859 59 203 0.0 0.0 0.00 0.16 0.16 95 1010.2
20260506235356 59 203 0.0 0.0 0.00 0.16 0.16 95 1010.2
20260506234852 59 203 0.0 0.0 0.00 0.16 0.16 95 1009.8
20260506234350 59 203 0.0 0.0 0.00 0.16 0.16 95 1009.8
20260506233847 59 203 0.0 0.9 0.00 0.16 0.16 95 1010.0
20260506233343 59 203 0.0 0.0 0.00 0.16 0.16 95 1009.8
20260506232841 59 203 0.9 0.9 0.00 0.16 0.16 95 1009.9
20260506232336 59 203 0.0 0.0 0.00 0.16 0.16 95 1009.9
20260506231833 59 203 0.0 0.0 0.00 0.16 0.16 95 1010.1
20260506231330 59 203 0.9 0.9 0.00 0.16 0.16 95 1010.1
20260506230828 59 203 0.0 0.9 0.00 0.16 0.16 95 1010.0
20260506230324 59 203 0.0 0.0 0.00 0.16 0.16 95 1010.2
20260506225820 59 203 0.9 0.9 0.00 0.16 0.16 95 1009.9
20260506225318 59 203 0.9 0.9 0.00 0.16 0.16 95 1010.1
20260506224815 59 203 0.0 0.0 0.00 0.16 0.16 95 1009.9
20260506224312 59 203 0.0 0.0 0.00 0.16 0.16 95 1010.0
20260506223808 59 203 0.0 0.0 0.00 0.16 0.16 95 1010.1
20260506223303 60 203 0.9 0.9 0.00 0.16 0.16 95 1010.0
20260506222801 60 203 0.9 0.9 0.00 0.16 0.16 94 1009.9
20260506222256 60 203 0.9 0.0 0.00 0.16 0.16 94 1010.0
20260506221754 60 203 0.0 0.0 0.00 0.16 0.16 95 1010.1
20260506221252 60 203 0.0 0.0 0.00 0.16 0.16 95 1010.1
20260506220750 60 203 0.9 0.9 0.00 0.16 0.16 95 1010.1
20260506220249 60 203 0.9 0.9 0.00 0.16 0.16 95 1010.2
20260506215747 60 203 0.9 0.9 0.00 0.16 0.16 95 1010.3
20260506215242 60 203 0.0 0.0 0.00 0.16 0.16 95 1010.2
20260506214739 60 203 0.0 0.9 0.00 0.16 0.16 95 1010.1
20260506214236 60 203 0.9 0.9 0.00 0.16 0.16 95 1010.2
20260506213735 60 203 0.0 0.0 0.00 0.16 0.16 95 1009.9
20260506213231 60 203 0.0 0.0 0.00 0.16 0.16 95 1010.3
20260506212728 61 203 0.9 0.9 0.00 0.16 0.16 95 1010.2
20260506212224 61 203 0.9 0.9 0.00 0.16 0.16 95 1010.4
20260506211719 61 203 0.9 0.9 0.00 0.16 0.16 95 1010.4
20260506211216 61 203 1.7 1.7 0.00 0.16 0.16 95 1010.3
20260506210713 61 203 1.7 1.7 0.00 0.16 0.16 95 1010.4
20260506210210 61 203 0.0 0.0 0.00 0.16 0.16 95 1010.4
20260506205708 61 203 0.9 0.9 0.00 0.16 0.16 95 1010.4
20260506205208 61 203 0.9 0.9 0.05 0.16 0.16 95 1010.5
20260506204705 61 203 0.0 0.9 0.05 0.16 0.16 95 1010.3
20260506204202 61 203 0.9 0.9 0.00 0.15 0.15 95 1010.5
20260506203700 61 203 0.9 0.9 0.00 0.15 0.15 95 1010.3
20260506203157 61 203 0.9 0.9 0.00 0.15 0.15 95 1010.5
20260506202655 61 203 0.9 0.9 0.07 0.15 0.15 95 1010.5
20260506202151 61 203 0.9 0.9 0.07 0.15 0.15 95 1010.4
20260506201648 61 203 0.9 0.9 0.12 0.15 0.15 95 1010.5
20260506201144 61 203 0.9 0.9 0.12 0.14 0.14 95 1010.5
20260506200641 61 203 0.9 0.9 0.07 0.13 0.13 95 1010.8
20260506200138 61 199 0.9 0.9 0.00 0.12 0.12 95 1010.9
20260506195635 61 199 0.0 0.0 0.07 0.12 0.12 94 1010.6
20260506195131 61 199 0.9 0.9 0.12 0.12 0.12 94 1010.9
20260506194629 61 199 0.0 0.0 0.05 0.11 0.11 94 1011.0
20260506194125 61 199 0.9 0.9 0.07 0.10 0.10 94 1011.1
20260506193623 61 199 0.9 0.9 0.07 0.10 0.10 94 1010.9
20260506193120 61 199 0.9 0.9 0.00 0.09 0.09 94 1011.1
20260506192616 61 199 0.9 0.9 0.00 0.09 0.09 94 1011.1
20260506192112 61 199 0.0 0.0 0.00 0.09 0.09 94 1011.3
20260506191609 61 199 0.0 0.0 0.00 0.09 0.09 94 1011.0
20260506191105 61 199 0.9 0.9 0.00 0.09 0.09 94 1011.0
20260506190603 61 199 0.0 0.0 0.00 0.09 0.09 94 1011.1
20260506190059 61 199 0.0 0.0 0.00 0.09 0.09 94 1011.0
20260506185556 61 199 0.0 0.0 0.05 0.09 0.09 94 1011.2
20260506185053 61 199 0.0 0.9 0.05 0.09 0.09 93 1011.7
20260506184550 61 199 0.9 0.9 0.00 0.08 0.08 93 1011.7
20260506184048 61 199 0.9 0.9 0.07 0.08 0.08 93 1011.5
20260506183543 61 199 0.9 0.9 0.07 0.08 0.08 93 1011.8
20260506183040 61 199 0.9 0.9 0.07 0.08 0.08 93 1012.3
20260506182537 61 199 0.0 0.0 0.00 0.07 0.07 93 1012.1
20260506182035 61 199 0.9 0.9 0.05 0.07 0.07 93 1012.0
20260506181533 61 199 0.0 0.0 0.05 0.07 0.07 93 1012.3
20260506181029 61 199 0.0 0.0 0.07 0.06 0.06 92 1012.2
20260506180525 61 199 0.0 0.0 0.07 0.06 0.06 91 1012.2
20260506180022 61 199 0.9 0.9 0.05 0.05 0.05 91 1012.4
20260506175519 61 199 0.0 0.0 0.05 0.05 0.05 90 1012.5
20260506175015 61 199 0.9 0.0 0.07 0.04 0.04 88 1012.5
20260506174514 62 199 0.9 1.7 0.07 0.04 0.04 88 1012.7
20260506174009 62 199 0.0 0.0 0.05 0.03 0.03 87 1012.5
20260506173508 62 199 0.0 0.0 0.12 0.03 0.03 85 1012.6
20260506173004 63 199 0.9 0.9 0.07 0.02 0.02 83 1012.6
20260506172502 63 199 0.9 0.9 0.00 0.01 0.01 82 1012.4
20260506171957 64 199 1.7 0.9 0.05 0.01 0.01 78 1012.3
20260506171455 65 199 1.7 1.7 0.05 0.01 0.01 76 1012.4
20260506170953 67 199 0.0 0.0 0.00 0.00 0.00 70 1012.0
20260506170449 68 199 0.9 0.9 0.00 0.00 0.00 65 1012.1
20260506165948 68 199 0.9 0.9 0.00 0.00 0.00 63 1012.1
20260506165447 68 199 0.9 0.9 0.00 0.00 0.00 62 1012.3
20260506164942 69 199 0.9 0.9 0.00 0.00 0.00 61 1012.1
20260506164439 69 199 0.9 0.9 0.00 0.00 0.00 62 1012.2
20260506163937 69 199 0.9 0.9 0.00 0.00 0.00 61 1012.2
20260506163432 69 199 0.9 0.9 0.00 0.00 0.00 62 1012.4
20260506162927 69 199 0.9 1.7 0.00 0.00 0.00 61 1012.3
20260506162425 69 199 0.9 1.7 0.00 0.00 0.00 61 1012.5
20260506161922 69 199 0.9 0.9 0.00 0.00 0.00 62 1012.4